Skip Page Navigation
NASA JPL Caltech
NASA Logo - Jet Propulsion Laboratory + View the NASA Portal
+ Center for Near-Earth Object Studies
JPL Home Earth Solar System Stars & Galaxies Technology
JPL Solar System Dynamics
BODIES ORBITS EPHEMERIDES TOOLS PHYSICAL DATA DISCOVERY FAQ SITE MAP
JPL Small-Body Database Browser
Search: [ help ]  
118614 (2000 GZ150)
Classification: Main-belt Asteroid          SPK-ID: 2118614
Ephemeris | Orbit Diagram | Orbital Elements | Mission Design | Physical Parameters | Discovery Circumstances ]

[ show orbit diagram ]
Orbital Elements at Epoch 2459200.5 (2020-Dec-17.0) TDB
Reference: JPL 22 (heliocentric ecliptic J2000)
 Element Value Uncertainty (1-sigma)   Units 
e .1864607405937645 4.7482e-08  
a 2.370914779877614 8.7891e-09 au
q 1.928832254136932 1.1134e-07 au
i 1.889129265924419 5.5584e-06 deg
node 187.0773188824983 0.00011447 deg
peri 198.669268590844 0.00011525 deg
M 43.63924416444799 1.2119e-05 deg
tp 2459038.860662395292
(2020-Jul-08.36066240)
4.4669e-05 TDB
period 1333.436512291872
3.65
7.4147e-06
2.03e-08
d
yr
n .2699791078776166 1.5012e-09 deg/d
Q 2.812997305618297 1.0428e-08 au
  Orbit Determination Parameters
   # obs. used (total)      607  
   data-arc span      8077 days (22.11 yr)  
   first obs. used      1998-12-08  
   last obs. used      2021-01-18  
   planetary ephem.      DE431  
   SB-pert. ephem.      SB431-N16  
   condition code      0  
   norm. resid. RMS      .52623  
   source      ORB  
   producer      Otto Matic  
   solution date      2021-Feb-24 09:20:14  

Additional Information
 Earth MOID = .931741 au 
 Jupiter MOID = 2.6379 au 
 T_jup = 3.520 
[ show covariance matrix ]

Ephemeris | Orbit Diagram | Orbital Elements | Mission Design | Physical Parameters | Discovery Circumstances ]

Physical Parameter Table
Parameter Symbol Value Units Sigma Reference Notes
absolute magnitude H 16.3   n/a MPO436570  

118614 (2000 GZ150)          Discovered 2000-Apr-05 by LINEAR at Socorro
Reference: 20051116/Numbers.arcLast Updated: 2005-11-21

Alternate Designations
 2000 GZ150 = 2005 QQ10 
Ephemeris | Orbit Diagram | Orbital Elements | Mission Design | Physical Parameters | Discovery Circumstances ]
ABOUT SSD CREDITS/AWARDS PRIVACY/COPYRIGHT GLOSSARY LINKS
FirstGov 2021-Apr-10 20:27 UT
(server date/time)  
NASA Home Page
Site Manager:   Ryan S. Park
Webmaster  Alan B. Chamberlin